McCook, NE

2:02 AM CDT on July 26, 2016 (GMT -0500)
McCook Municipal

Weather History for KMCK - January, 2015

Change the Weather History Date:

Monday, January 5, 2015

  Actual Average Record
Temperature  
Mean Temperature 10 °F 27 °F  
Max Temperature 21 °F 40 °F 72 °F (1935)
Min Temperature -1 °F 14 °F -21 °F (1924)
Degree Days  
Heating Degree Days 54    
Moisture  
Dew Point 5 °F    
Average Humidity 74    
Maximum Humidity 79    
Minimum Humidity 66    
Precipitation  
Precipitation 0.00 in 0.01 in 0.80 in (1949)
Month to date precipitation 0.01 0.08  
Year to date precipitation 0.01 0.08  
Sea Level Pressure  
Sea Level Pressure 30.36 in    
Wind  
Wind Speed 9 mph (SSW)    
Max Wind Speed 14 mph    
Max Gust Speed -    
Visibility 10 miles    
Events      
T = Trace of Precipitation, MM = Missing Value Source: NWS Daily Summary

Daily Weather History Graph

Daily Weather History Graph

Search for Another Location

Airport or City:

Trip Planner

Search our weather history database for the weather conditions in past years. The results will help you decide how hot, cold, wet, or windy it might be!

Date:

Astronomy

Jan. 05, 2015 Rise Set
Actual Time 8:05 AM CST 5:30 PM CST
Civil Twilight 7:34 AM CST 6:01 PM CST
Nautical Twilight 7:00 AM CST 6:34 PM CST
Astronomical Twilight 6:27 AM CST 7:07 PM CST
Moon 6:26 PM CST (1/5) 8:03 AM CST (1/5)
Length of Visible Light 10h 26m
Length of Day
9h 25m
Full, 100% of the Moon is Illuminated
Jan 5
Full
Jan 13
Last Quarter
Jan 20
New
Jan 26
First Quarter
Feb 3
Full

Hourly Weather History & Observations

Time (CST) Temp. Windchill Dew Point Humidity Pressure Visibility Wind Dir Wind Speed Gust Speed Precip Events Conditions
12:53 AM -0.0 °F -11.6 °F -5.1 °F 79% 30.73 in 10.0 mi NE 5.8 mph - N/A   Clear
1:53 AM -0.0 °F -11.6 °F -5.1 °F 79% 30.73 in 10.0 mi ENE 5.8 mph - N/A   Clear
2:53 AM 1.0 °F -11.7 °F -4.0 °F 79% 30.70 in 10.0 mi East 6.9 mph - N/A   Mostly Cloudy
3:53 AM -0.0 °F -11.6 °F -5.1 °F 79% 30.68 in 10.0 mi East 5.8 mph - N/A   Partly Cloudy
4:53 AM 1.9 °F -9.2 °F -4.0 °F 76% 30.66 in 10.0 mi ESE 5.8 mph - N/A   Mostly Cloudy
5:53 AM 6.1 °F -9.5 °F -2.9 °F 67% 30.58 in 10.0 mi SSE 11.5 mph - N/A   Clear
6:53 AM 5.0 °F -10.8 °F -4.0 °F 66% 30.54 in 10.0 mi SE 11.5 mph - N/A   Clear
7:53 AM 3.9 °F -10.4 °F -2.9 °F 73% 30.50 in 10.0 mi SSE 9.2 mph - N/A   Clear
8:53 AM 6.1 °F -8.7 °F -0.9 °F 73% 30.48 in 10.0 mi SSE 10.4 mph - N/A   Clear
9:53 AM 8.1 °F -8.4 °F -0.0 °F 70% 30.44 in 10.0 mi South 13.8 mph - N/A   Clear
10:53 AM 9.0 °F -6.6 °F 1.9 °F 73% 30.38 in 10.0 mi SSE 12.7 mph - N/A   Mostly Cloudy
11:27 AM 10.0 °F -5.2 °F 3.0 °F 73% 30.17 in 10.0 mi South 12.7 mph - N/A   Overcast
11:53 AM 10.9 °F -2.6 °F 3.9 °F 73% 30.31 in 10.0 mi SSW 10.4 mph - N/A   Overcast
12:19 PM 12.9 °F -1.6 °F 6.1 °F 74% 30.11 in 10.0 mi SSW 12.7 mph - N/A   Overcast
12:53 PM 15.1 °F 1.8 °F 8.1 °F 74% 30.25 in 10.0 mi SW 11.5 mph - N/A   Mostly Cloudy
1:04 PM 15.1 °F 3.3 °F 8.1 °F 74% 30.07 in 10.0 mi SW 9.2 mph - N/A   Scattered Clouds
1:13 PM 15.1 °F 1.8 °F 8.1 °F 74% 30.06 in 10.0 mi SSW 11.5 mph - N/A   Mostly Cloudy
1:22 PM 16.0 °F 3.6 °F 9.0 °F 74% 30.06 in 10.0 mi SSW 10.4 mph - N/A   Scattered Clouds
1:53 PM 17.1 °F 5.8 °F 10.0 °F 74% 30.20 in 10.0 mi SSW 9.2 mph - N/A   Clear
2:53 PM 19.9 °F 9.3 °F 10.9 °F 68% 30.19 in 10.0 mi SSW 9.2 mph - N/A   Clear
3:53 PM 21.0 °F 9.9 °F 12.9 °F 71% 30.19 in 10.0 mi SW 10.4 mph - N/A   Clear
4:53 PM 21.0 °F 11.4 °F 12.9 °F 71% 30.19 in 10.0 mi WSW 8.1 mph - N/A   Clear
5:53 PM 21.0 °F 10.6 °F 12.9 °F 71% 30.20 in 10.0 mi WSW 9.2 mph - N/A   Clear
6:53 PM 19.9 °F 14.9 °F 12.9 °F 74% 30.23 in 10.0 mi SW 3.5 mph - N/A   Clear
7:53 PM 17.1 °F 6.6 °F 10.9 °F 77% 30.29 in 10.0 mi NNW 8.1 mph - N/A   Clear
8:53 PM 17.1 °F 6.6 °F 10.0 °F 74% 30.32 in 10.0 mi West 8.1 mph - N/A   Clear
9:53 PM 17.1 °F 5.0 °F 10.0 °F 74% 30.36 in 10.0 mi WSW 10.4 mph - N/A   Clear
10:53 PM 18.0 °F 6.9 °F 10.9 °F 74% 30.39 in 10.0 mi West 9.2 mph - N/A   Clear
11:53 PM 21.0 °F 11.4 °F 14.0 °F 74% 30.43 in 10.0 mi West 8.1 mph - N/A   Clear